[[{"header":{"parameterUnit":"m.s-1","parameterCategory":1,"la1":30.2992,"la2":30.254,"lo1":-89.0895,"lo2":-89.0443,"dy":0.0025,"dx":0.0025,"nx":19,"ny":19,"refTime":"2026-03-27T09:00:00:Z","depth":0,"parameterNumber":2,"parameterNumberName":"U-component_of_WINDS"},"data":[0,0,0,2.3712,2.3715,2.385,2.385,2.4016,2.4017,0,0,0,0,0,0,0,0,0,0,0,2.3666,2.3667,2.3712,2.3715,2.385,2.385,2.4015,2.4017,0,0,0,0,0,0,0,0,0,0,0,2.3666,2.3667,2.3668,2.3716,2.3849,2.385,2.4015,2.3916,0,0,0,0,0,0,0,0,0,0,2.3787,2.3738,2.3667,2.3668,2.3716,2.3849,2.385,2.3912,2.3923,2.3951,0,2.3974,0,2.3998,2.4028,2.4028,0,0,0,2.372,2.3729,2.3771,2.3668,2.3718,2.3849,2.379,2.3918,2.393,2.3966,2.3976,2.3983,2.4001,2.4029,2.4029,2.4175,2.4176,0,0,2.3713,2.3688,2.3762,2.3778,2.3755,2.3786,2.3794,2.3925,2.3936,2.3977,2.3987,2.4003,2.403,2.4031,2.4175,2.4176,0,0,0,2.3688,2.3682,2.3721,2.3771,2.3796,2.379,2.38,2.393,2.3945,2.3988,2.4005,2.4031,2.4033,2.4175,2.4175,2.4173,0,0,0,2.3684,2.3668,2.3717,2.3704,2.3793,2.3864,2.3801,2.3936,2.3951,2.4004,2.4031,2.4034,2.4174,2.4175,2.4172,2.4176,0,0,0,2.366,2.3665,2.3683,2.3702,2.3759,2.3863,2.3885,2.394,2.3961,2.4028,2.4034,2.4174,2.4175,2.4171,2.4175,2.4207,0,0,0,2.3627,2.3679,2.3682,2.3747,2.3757,2.386,2.3884,2.3962,2.402,2.4031,2.4174,2.4175,2.4171,2.4174,2.4206,2.423,2.4237,0,0,2.3679,2.3684,2.3724,2.3731,2.3826,2.3841,2.3938,2.4014,2.4044,2.413,2.4134,2.4172,2.4175,2.4207,2.4288,2.4294,0,0,0,2.3732,2.3761,2.3792,2.3844,2.3903,2.3955,2.4019,2.4048,2.4122,2.4083,2.4194,2.4196,2.4216,2.4228,2.4233,2.4252,2.418,2.418,2.418,2.3769,2.3804,2.3873,2.3925,2.3976,2.4042,2.4087,2.4137,2.4158,2.4184,2.4209,2.4254,2.4268,2.4272,2.4291,2.4225,2.4225,2.4225,2.4225,2.3848,2.3894,2.3921,2.3997,2.4034,2.4099,2.4166,2.4179,2.4246,2.4238,2.4257,2.4245,2.4277,2.4296,2.4225,2.4225,2.4225,2.4225,2.4225,2.3876,2.3904,2.3937,2.4018,2.4077,2.4128,2.4191,2.4223,2.4254,2.4273,2.4304,2.4304,2.4309,2.4286,2.4286,2.4286,2.4286,2.4286,2.4286,2.3891,2.3929,2.3977,2.4045,2.4084,2.4139,2.4207,2.4247,2.4299,2.4318,2.4318,2.4336,2.4273,2.4257,2.4289,2.4289,2.4288,2.4288,2.4288,2.3956,2.3947,2.4022,2.4061,2.4144,2.42,2.4241,2.4319,2.4357,2.4387,2.4402,2.435,2.4358,2.4355,2.4341,2.4394,2.4394,2.4394,2.4394,2.3979,2.3987,2.4071,2.4131,2.4194,2.4239,2.4324,2.4378,2.4433,2.4459,2.4456,2.4441,2.4436,2.4448,2.4442,2.443,2.4504,2.4504,2.4504,2.4022,2.4037,2.4103,2.4155,2.4223,2.4281,2.4363,2.4432,2.4492,2.4509,2.448,2.4475,2.4451,2.4442,2.4456,2.4447,2.4425,0,0]},{"header":{"parameterUnit":"m.s-1","parameterCategory":1,"la1":30.2992,"la2":30.254,"lo1":-89.0895,"lo2":-89.0443,"dy":0.0025,"dx":0.0025,"nx":19,"ny":19,"refTime":"2026-03-27T09:00:00:Z","depth":0,"parameterNumber":3,"parameterNumberName":"V-component_of_WINDS"},"data":[0,0,0,2.0073,2.0075,2.0169,2.017,2.0275,2.0276,0,0,0,0,0,0,0,0,0,0,0,2.004,2.004,2.0073,2.0075,2.0169,2.017,2.0275,2.0276,0,0,0,0,0,0,0,0,0,0,0,2.004,2.004,2.0041,2.0075,2.0169,2.017,2.0275,2.0208,0,0,0,0,0,0,0,0,0,0,2.0119,2.0085,2.004,2.0041,2.0076,2.0169,2.017,2.0205,2.0212,2.0227,0,2.0243,0,2.0261,2.0283,2.0283,0,0,0,2.0078,2.0079,2.0109,2.0041,2.0077,2.0169,2.0128,2.0209,2.0217,2.0237,2.0244,2.0248,2.0263,2.0283,2.0284,2.0365,2.0365,0,0,2.0073,2.0054,2.0103,2.0114,2.0102,2.0125,2.013,2.0214,2.022,2.0245,2.0251,2.0265,2.0284,2.0285,2.0365,2.0365,0,0,0,2.0056,2.005,2.0078,2.0109,2.0127,2.0127,2.0134,2.0216,2.0227,2.0252,2.0266,2.0284,2.0286,2.0364,2.0365,2.0357,0,0,0,2.0053,2.004,2.0076,2.0065,2.0126,2.0174,2.0134,2.0222,2.0232,2.0265,2.0285,2.0287,2.0364,2.0365,2.0357,2.0357,0,0,0,2.0035,2.0038,2.005,2.0064,2.0104,2.0173,2.0189,2.0224,2.024,2.0283,2.0287,2.0364,2.0365,2.0357,2.0357,2.0371,0,0,0,2.0011,2.0043,2.005,2.009,2.0103,2.0169,2.0189,2.0239,2.0275,2.0285,2.0364,2.0365,2.0357,2.0357,2.0371,2.038,2.0382,0,0,2.0041,2.0046,2.0071,2.008,2.014,2.0156,2.0213,2.0264,2.0285,2.0336,2.0338,2.0357,2.0357,2.0371,2.0403,2.0404,0,0,0,2.0074,2.0091,2.0112,2.0146,2.0186,2.0219,2.0263,2.0281,2.0325,2.0309,2.0367,2.0368,2.0377,2.0382,2.0383,2.0391,2.0367,2.0366,2.0366,2.0089,2.0114,2.0156,2.0191,2.0223,2.0266,2.0294,2.0324,2.0341,2.0353,2.0369,2.0385,2.039,2.0392,2.04,2.0376,2.0376,2.0376,2.0376,2.0133,2.0161,2.018,2.0227,2.0251,2.029,2.0331,2.034,2.0377,2.0377,2.0386,2.0383,2.0393,2.0401,2.0376,2.0376,2.0376,2.0376,2.0376,2.0145,2.0163,2.0184,2.0233,2.0268,2.0301,2.0335,2.0356,2.0375,2.0384,2.0401,2.0401,2.0402,2.0391,2.0391,2.0391,2.0391,2.0391,2.0391,2.0148,2.0173,2.0201,2.0243,2.0266,2.0298,2.0338,2.036,2.0389,2.0401,2.0401,2.0413,2.039,2.0383,2.0392,2.0392,2.0392,2.0392,2.0392,2.0183,2.0178,2.0221,2.0244,2.0292,2.0323,2.0348,2.0389,2.041,2.0425,2.0435,2.0415,2.0421,2.042,2.0414,2.0431,2.0431,2.0431,2.0431,2.0192,2.0197,2.0244,2.0278,2.0313,2.034,2.0382,2.0412,2.0442,2.0455,2.0455,2.0449,2.0447,2.0455,2.0453,2.0448,2.0473,2.0473,2.0473,2.0213,2.0222,2.0257,2.0288,2.0327,2.0358,2.0398,2.0432,2.0465,2.0475,2.0465,2.0463,2.0454,2.045,2.0461,2.0458,2.0449,0,0]}]]